Theta_e
319 319 320 320 321 322 323 323 323 323 324 324 323 322 322 323 323 323 323 323 325 327 326 326 325 324 324 324 324 321 310 296 295 295 295 297 314 322 322 324 324 321 317 298 299 296 295 292 296 294 290 290 291 292 292 291 289 290 285 281 282 280 282 282 285 284 286 286 287 285 284 286 285 286 286 286 284 282 282 282 282 284 282 284 284 284 286 287
319 319 320 321 321 322 322 322 323 323 324 324 322 323 324 324 323 322 324 325 326 326 325 326 324 324 324 323 323 318 297 295 293 294 294 307 323 323 322 323 321 316 312 297 298 294 293 294 296 288 290 291 290 292 291 293 289 283 280 282 283 279 283 286 284 284 285 287 285 283 282 285 287 285 286 286 282 282 282 281 281 281 282 284 284 285 286 285
319 319 320 320 321 321 321 322 323 324 324 324 324 324 324 324 324 324 324 325 325 325 325 325 325 323 323 323 320 312 302 291 294 292 295 317 322 322 322 323 318 315 300 300 297 297 298 296 295 290 287 289 287 289 288 291 293 285 286 283 280 281 282 283 284 287 285 286 285 284 284 284 286 285 286 286 283 281 282 279 280 280 280 281 282 284 284 284
319 319 320 320 320 321 321 322 323 324 324 324 324 324 324 324 324 324 325 325 325 325 324 325 325 323 321 320 320 298 293 288 288 291 295 318 321 322 320 321 315 304 301 299 297 295 292 291 288 292 288 286 287 285 288 289 289 287 286 283 283 281 285 286 283 283 283 284 284 283 283 283 284 284 286 284 284 282 282 282 282 280 280 281 282 283 283 282
319 319 319 320 320 320 321 322 323 323 324 324 324 324 324 324 324 325 325 324 325 325 325 325 324 323 317 316 314 296 292 284 288 292 297 318 318 320 318 318 313 297 300 296 294 291 291 290 290 286 289 290 285 285 286 287 287 287 286 283 284 282 284 286 283 282 282 281 283 281 285 285 284 285 284 284 285 283 283 284 282 283 282 282 281 281 282 281
318 319 319 319 319 320 321 321 322 323 323 324 324 324 324 324 325 325 325 324 325 325 326 325 324 321 320 314 295 295 293 279 291 294 315 313 316 316 317 313 311 295 293 291 292 291 293 292 289 287 285 285 285 287 287 286 287 288 283 283 282 282 285 283 283 282 282 284 283 284 285 284 283 283 280 283 281 282 283 284 283 283 283 283 282 281 281 280
318 318 318 319 319 320 320 321 322 322 324 323 324 324 324 323 324 324 325 326 327 325 324 323 323 321 319 311 296 296 291 289 290 296 310 313 313 311 313 308 306 296 297 295 292 291 288 289 287 287 286 285 284 284 287 286 285 288 286 283 285 280 285 282 282 280 281 284 285 283 285 285 284 286 282 280 279 281 282 283 283 283 283 283 281 280 279 279
318 318 318 318 319 319 320 321 321 323 323 323 324 324 324 323 323 324 324 325 325 324 323 323 320 319 318 294 293 288 289 288 294 294 305 310 299 296 302 296 295 292 293 291 290 290 286 289 289 285 284 286 287 287 286 288 284 286 285 286 286 281 282 281 280 281 280 281 281 282 285 283 282 283 280 278 279 281 282 283 282 282 281 281 280 279 279 278
318 318 318 318 318 319 320 321 321 322 322 323 323 324 325 323 322 322 323 323 323 323 322 322 321 316 311 290 288 291 287 292 295 295 295 294 293 292 296 297 293 292 289 288 289 290 290 286 289 287 288 286 287 287 285 286 284 285 287 285 283 282 280 281 281 282 280 281 282 284 283 280 281 281 278 278 280 281 282 281 281 281 280 279 278 278 278 278
318 318 318 318 318 319 319 321 321 321 322 323 324 324 325 323 321 321 322 323 324 324 323 321 316 314 295 289 289 288 291 294 293 295 293 292 291 293 295 292 291 291 292 290 290 291 289 287 290 289 287 287 287 286 285 286 285 287 284 285 282 281 281 282 282 282 280 282 281 284 283 282 281 282 279 280 281 281 281 280 280 279 277 277 277 277 278 278
318 317 317 317 318 319 320 321 321 320 322 323 324 324 324 321 321 321 322 322 323 324 323 320 318 305 296 292 290 286 295 295 294 294 293 292 291 294 293 292 291 291 289 289 289 289 291 289 288 287 291 288 287 286 284 286 286 283 281 282 283 279 280 281 282 281 282 284 281 283 282 281 280 280 278 279 281 281 280 279 278 277 276 277 277 277 278 278
317 317 317 317 318 319 320 320 319 321 321 323 323 322 323 320 320 321 323 322 322 323 323 317 308 292 290 293 290 289 294 295 293 292 294 294 292 293 293 292 291 294 292 291 289 288 290 290 289 290 286 290 285 286 286 283 286 283 282 284 282 279 280 281 282 281 280 283 280 281 280 278 278 277 278 280 281 280 279 278 277 276 276 276 277 277 277 278
318 317 317 318 319 319 320 319 320 321 322 323 322 323 320 320 320 321 321 317 323 320 321 316 302 295 294 290 289 295 292 292 293 293 296 296 292 290 291 289 290 291 290 289 289 289 288 287 289 289 287 286 286 285 285 281 279 283 279 279 279 279 279 281 281 281 282 283 279 281 276 277 276 276 278 280 279 279 278 276 276 275 275 276 276 276 277 277
317 317 317 318 319 319 319 319 320 321 322 322 321 320 319 318 320 320 321 318 318 321 317 312 293 291 288 285 292 293 294 294 292 296 293 295 295 293 292 293 289 289 290 290 289 289 289 287 289 287 287 285 285 287 282 279 279 282 279 278 274 276 275 280 279 279 282 281 279 282 276 277 276 276 277 279 279 279 276 276 275 275 275 275 276 276 276 276
317 317 317 318 318 318 319 320 320 320 320 319 318 317 317 318 319 320 319 316 319 317 318 313 295 294 287 290 292 292 311 293 296 292 291 294 292 292 294 292 290 289 288 289 289 288 288 287 288 285 284 285 283 282 278 277 276 276 278 273 275 273 276 279 282 278 280 281 279 282 273 277 275 275 277 278 279 278 276 275 275 275 275 275 275 275 276 276
316 317 318 318 318 318 319 319 319 319 319 317 316 317 319 318 318 318 318 315 315 321 300 296 293 291 288 285 292 300 289 293 293 292 290 293 290 291 292 289 289 290 289 289 288 289 289 290 285 283 284 284 281 276 276 276 275 276 276 271 272 274 275 276 280 279 279 279 279 280 277 279 276 276 276 277 278 277 275 274 274 274 274 275 275 275 276 276
317 317 318 318 317 318 318 318 318 318 319 320 317 314 313 314 315 318 315 309 300 301 297 295 290 292 288 290 293 290 287 290 290 292 293 292 290 289 290 290 289 288 287 290 290 290 288 285 282 280 280 280 278 277 273 271 273 273 274 272 274 273 276 275 279 279 278 279 279 278 278 276 275 275 276 277 278 276 274 274 274 274 274 274 275 275 275 275
316 316 318 317 317 317 317 317 318 318 318 319 318 318 304 313 312 310 304 301 296 296 293 292 290 291 287 290 287 289 290 286 292 290 289 292 289 291 289 291 288 284 284 287 288 288 285 281 281 280 277 279 278 279 276 268 270 273 274 273 275 274 274 275 274 278 279 280 279 277 277 275 274 275 275 276 277 275 274 274 274 274 274 274 274 275 275 275
316 317 318 317 318 317 317 317 317 318 317 318 319 319 314 310 298 299 297 295 293 290 285 289 288 283 283 287 288 288 289 291 289 291 292 294 291 288 289 287 286 289 283 283 285 285 283 280 280 277 277 277 277 277 276 276 276 275 275 273 274 272 274 274 277 279 278 277 277 277 276 273 273 273 274 275 276 275 274 274 274 274 274 274 274 274 275 275
317 317 316 317 317 317 316 317 317 317 317 309 299 302 296 290 290 289 293 293 288 289 288 289 286 288 287 287 290 293 292 289 290 292 293 294 291 288 289 286 287 287 282 280 281 281 281 279 274 271 274 276 276 278 279 278 277 276 275 273 273 274 275 276 277 278 278 277 276 275 272 272 272 273 273 274 274 274 274 274 274 274 274 274 274 274 275 275
316 316 315 316 316 317 317 317 318 313 312 296 297 296 295 286 285 284 285 288 285 285 288 288 288 288 289 288 288 289 286 288 287 291 292 296 289 287 287 285 283 284 282 279 281 282 282 279 277 277 277 276 277 276 276 276 275 276 275 274 274 273 274 277 277 278 278 277 276 273 273 272 272 273 273 273 274 273 273 273 273 273 274 274 274 274 275 275
316 315 315 316 317 317 317 318 316 314 308 298 295 293 290 289 292 290 287 284 289 288 286 286 286 288 287 287 288 287 286 286 290 291 293 294 290 286 285 282 280 280 279 279 277 277 278 277 278 278 277 276 275 275 277 276 276 276 274 273 271 275 276 278 276 277 278 278 276 274 273 271 272 272 274 273 273 273 273 273 273 273 273 273 274 274 275 275
315 315 315 316 317 318 318 318 314 309 294 295 294 292 296 299 294 291 289 286 285 288 287 286 289 285 287 289 288 287 286 285 283 288 289 290 287 286 282 281 280 279 280 280 279 278 277 277 280 277 276 276 276 275 276 277 276 276 274 273 273 275 273 272 278 279 278 276 275 274 274 272 272 273 273 273 273 273 274 274 274 274 274 273 274 274 274 275
314 314 315 316 317 317 318 315 312 301 295 293 294 295 295 294 293 293 288 283 285 288 290 288 288 286 286 288 290 287 285 284 282 286 291 287 284 283 280 281 279 278 279 277 279 279 277 280 278 276 275 276 276 276 277 276 275 275 274 272 272 274 275 274 275 277 278 276 276 274 273 271 271 270 271 273 274 273 273 273 274 274 275 276 276 276 275 274
314 314 315 316 316 317 316 311 299 296 293 293 293 296 294 294 291 291 289 284 282 285 288 288 285 289 290 291 288 289 285 285 285 285 287 287 286 281 282 281 280 278 278 278 277 277 277 280 278 278 275 276 277 277 276 275 274 274 274 275 275 275 275 275 276 274 273 273 275 274 266 267 270 270 270 272 272 272 273 272 272 273 274 275 275 275 275 276
314 314 315 315 316 315 315 303 298 296 294 293 296 296 292 291 294 289 283 276 274 283 287 286 291 288 290 288 287 281 284 283 286 287 290 288 289 284 280 279 280 278 279 278 277 277 278 278 277 277 277 277 277 276 276 276 272 271 274 274 276 275 275 275 274 272 267 266 272 275 267 263 269 268 271 271 271 270 272 272 272 272 273 275 274 275 275 275
314 313 314 315 314 312 300 295 294 294 294 293 296 294 294 296 292 297 292 272 268 283 283 289 290 288 293 287 284 285 278 281 287 286 288 289 285 287 282 277 277 280 280 278 277 276 279 278 279 278 278 277 276 276 277 275 273 273 275 275 276 275 275 274 273 272 272 275 275 274 272 264 266 271 272 271 270 270 270 271 272 272 273 274 274 275 275 276
314 313 314 315 312 307 297 297 296 295 292 296 294 294 293 291 293 292 278 266 270 287 284 284 290 290 290 287 287 284 283 283 281 285 288 287 285 284 281 279 277 278 278 277 271 277 277 277 278 278 276 277 276 277 278 276 274 275 277 276 275 276 275 275 272 271 270 269 268 271 272 267 262 271 271 271 269 268 269 270 271 273 273 274 275 275 276 276
313 312 313 314 314 308 297 293 291 292 294 295 293 294 288 291 293 287 273 269 280 282 293 287 295 288 283 285 283 280 282 283 281 284 286 285 289 283 279 279 278 279 278 278 275 276 279 278 279 278 276 275 277 278 277 277 274 275 277 277 276 276 274 273 271 269 265 264 265 269 271 266 266 272 269 270 270 268 268 269 271 273 273 274 275 275 276 276
313 311 312 313 303 299 294 292 295 297 296 292 295 292 290 291 286 279 273 269 283 278 285 286 285 283 280 281 280 281 282 281 281 281 283 281 285 285 281 282 279 278 278 277 276 278 277 282 283 279 278 279 278 278 277 279 277 278 277 276 276 273 272 272 268 267 264 254 265 269 269 268 263 267 268 268 268 267 268 272 273 274 274 275 275 276 276 275
313 310 310 310 297 295 290 290 294 293 293 295 294 290 291 284 271 262 264 274 285 283 283 282 280 281 278 279 278 280 280 278 281 280 280 281 281 281 281 279 279 275 272 274 271 278 276 279 278 278 282 280 278 277 277 277 276 275 275 274 274 273 274 268 266 263 260 262 266 269 269 269 260 266 267 269 269 269 270 270 272 273 273 273 274 274 275 275
312 309 309 301 297 293 294 293 295 295 293 291 290 288 285 281 277 271 273 284 278 279 278 279 280 278 278 278 277 279 278 277 279 279 277 276 276 277 277 275 273 272 273 274 274 276 275 276 277 277 282 278 277 277 276 276 277 276 275 273 267 266 263 261 263 259 255 261 270 272 271 263 265 270 268 268 269 270 271 272 272 272 273 273 273 274 274 275
311 311 308 302 298 293 292 293 293 296 293 290 287 282 278 270 270 267 269 274 278 280 279 281 280 278 277 277 277 277 278 278 279 278 279 277 276 275 277 277 277 273 271 269 269 272 272 274 276 277 277 279 278 274 273 272 275 274 271 269 263 258 257 258 261 263 265 268 272 270 269 266 271 269 269 269 270 272 272 272 273 273 273 273 273 274 274 274
308 305 299 297 297 295 295 294 293 292 289 290 283 286 278 274 270 283 272 272 279 277 280 278 278 276 276 278 277 276 276 278 277 278 278 276 275 272 274 276 277 275 270 271 271 267 269 269 274 276 274 277 277 276 275 273 273 272 274 271 264 262 257 259 260 259 262 265 269 268 263 256 263 267 270 271 271 272 272 272 273 273 274 273 273 273 274 273
306 297 295 291 293 293 295 293 292 291 287 288 282 278 276 269 266 270 270 272 276 278 281 279 276 275 276 273 275 276 279 275 277 275 276 276 275 272 273 274 276 276 272 267 265 265 271 271 276 277 278 278 276 277 276 274 273 273 271 274 265 265 265 259 258 258 262 263 264 257 256 263 267 271 272 272 272 271 272 274 274 272 273 273 272 272 272 272
306 296 290 288 292 292 291 291 289 287 286 285 281 275 271 268 273 273 276 279 278 280 278 278 275 273 269 271 271 275 279 277 277 273 273 274 275 274 275 274 275 276 272 268 266 267 269 268 273 277 276 277 277 277 275 275 264 271 273 264 269 274 271 262 267 269 267 265 260 263 267 270 272 270 269 270 270 272 274 273 272 271 272 272 271 271 272 272
295 290 294 289 289 291 291 290 289 289 289 283 279 272 271 272 278 274 283 280 280 278 274 275 273 273 272 272 270 272 276 277 275 274 275 275 275 275 274 275 276 276 276 273 266 267 264 272 276 273 276 277 277 275 275 275 276 270 262 270 275 274 272 262 260 266 264 261 260 265 263 263 263 260 267 268 269 272 271 270 271 271 271 270 270 270 271 271
292 291 289 289 291 290 289 288 288 288 285 284 275 283 275 278 280 280 278 279 280 276 273 274 274 277 268 271 274 271 277 275 278 273 273 274 274 276 273 274 276 277 277 276 271 269 270 266 272 273 273 276 277 275 275 276 275 275 273 273 268 258 261 264 261 254 259 258 260 264 265 265 262 264 268 269 269 269 269 270 269 269 269 269 269 270 271 269
285 287 288 291 290 290 289 287 289 287 285 281 270 280 279 278 279 279 279 281 279 278 276 274 273 275 272 269 271 271 273 272 273 273 270 274 271 276 276 275 276 277 277 277 271 272 272 265 270 273 274 275 275 273 268 271 274 274 274 272 270 269 258 256 257 262 262 259 258 259 265 261 267 268 269 268 268 268 268 268 268 268 269 269 269 270 268 268
291 287 285 290 290 288 288 290 290 285 282 279 271 273 279 280 280 280 276 280 279 277 276 275 276 272 274 273 274 273 273 273 274 273 273 275 275 277 275 277 275 277 274 274 272 275 269 270 262 271 274 274 270 272 270 270 265 268 267 265 265 261 266 266 258 257 260 261 261 260 257 260 268 269 268 269 269 269 268 268 268 268 269 269 269 268 267 268
282 284 286 290 291 290 291 292 283 276 275 276 278 278 279 279 280 280 278 278 281 281 278 276 275 275 275 272 273 276 273 272 273 272 273 273 274 270 276 278 277 275 276 273 271 270 264 268 263 270 270 271 273 274 273 271 274 272 269 263 266 261 263 261 261 260 254 257 257 257 255 264 270 272 271 270 270 269 269 269 268 268 268 268 268 267 268 268
289 282 286 292 290 291 290 284 274 276 276 273 277 281 281 288 279 280 279 279 279 280 278 276 277 275 274 276 276 274 275 272 273 270 273 272 276 275 275 274 276 276 271 270 270 271 270 267 268 265 269 272 274 274 274 273 273 271 270 267 265 261 259 257 257 262 263 261 264 263 260 262 272 271 272 271 270 270 270 269 268 268 268 268 267 267 268 267
280 284 291 291 290 291 287 275 277 277 275 280 281 280 279 278 277 278 279 280 280 279 278 279 279 277 276 279 277 275 275 271 273 274 274 274 272 275 274 271 273 275 275 269 271 272 279 260 263 270 273 274 274 271 273 270 273 271 269 268 266 257 255 260 263 265 261 263 259 260 261 265 272 273 272 271 271 270 270 269 268 267 267 267 266 267 266 266
281 284 290 292 290 291 282 276 274 273 275 280 279 279 279 281 279 279 278 278 279 280 279 278 278 279 278 277 277 278 277 270 275 274 274 273 276 273 268 274 273 276 272 273 269 274 267 268 268 267 268 270 272 272 272 271 272 269 266 265 264 262 259 259 260 259 259 259 263 262 256 261 270 274 272 271 270 269 268 268 268 266 266 266 266 266 266 266
283 283 284 286 291 287 279 277 280 273 276 276 276 277 277 280 280 281 279 279 279 277 277 278 279 279 277 277 275 277 277 275 273 273 272 271 273 274 273 269 272 276 275 277 282 276 269 269 265 261 263 261 262 262 265 268 270 270 268 265 263 260 259 262 258 257 260 264 265 262 260 266 271 272 270 269 268 268 268 268 268 267 266 265 266 265 265 265
285 281 282 283 285 284 279 279 278 277 274 271 275 277 277 278 281 276 279 281 278 278 278 279 278 277 276 276 276 276 276 276 274 271 270 272 270 274 274 272 273 276 279 281 275 270 263 268 268 264 261 265 268 270 275 275 271 265 265 263 262 261 259 260 262 263 260 264 263 265 265 265 266 267 267 267 267 266 265 266 265 265 265 265 265 264 264 264
281 279 277 280 280 283 278 278 278 277 278 276 274 275 274 277 277 279 279 280 280 279 279 278 278 279 277 276 274 275 274 276 273 271 269 268 268 271 271 273 275 278 283 280 276 264 261 264 265 268 268 271 272 272 273 273 268 269 265 263 262 261 260 260 261 262 267 264 259 265 267 263 263 266 266 266 266 266 265 265 265 264 264 264 264 264 265 264
283 280 281 282 282 279 277 279 277 279 279 277 273 276 274 275 277 275 280 279 279 277 280 279 275 276 277 278 275 271 273 270 271 270 269 268 267 271 274 275 274 277 278 274 268 267 261 262 262 263 264 268 269 270 271 270 268 268 266 263 263 264 262 259 260 265 267 263 261 266 266 262 264 265 267 266 266 265 265 265 265 265 265 264 263 262 262 262
280 280 280 281 278 276 277 279 279 280 279 276 276 276 272 274 275 275 277 280 277 278 278 273 276 277 277 277 276 272 272 269 270 268 265 269 267 268 268 272 276 272 273 271 271 258 266 260 259 259 267 269 270 270 270 268 267 267 262 265 264 265 265 265 265 266 266 265 266 266 264 263 265 266 267 267 267 266 265 265 264 263 263 263 262 261 261 261
282 279 279 279 279 277 275 276 279 279 279 281 274 279 274 274 276 277 277 277 274 277 278 276 277 277 276 275 274 272 275 275 274 272 270 269 267 268 269 269 270 273 271 270 267 268 269 264 270 259 263 267 270 268 266 267 265 264 265 264 265 265 265 267 267 267 267 266 266 262 261 262 266 269 267 268 267 266 265 263 263 263 262 262 261 261 261 261
282 280 285 286 278 276 277 274 280 277 277 279 275 277 278 274 278 277 278 278 277 276 277 278 276 276 276 275 276 277 278 275 274 275 273 273 271 272 270 271 276 270 267 266 263 263 266 266 259 255 263 265 268 268 269 270 266 261 262 264 265 265 263 264 262 267 265 262 262 262 260 260 266 268 267 266 265 264 262 262 262 262 262 261 260 260 260 260
279 281 281 282 278 278 278 275 276 279 278 278 277 278 279 278 278 277 277 277 275 278 278 279 276 277 275 276 274 276 278 276 277 276 275 276 277 276 277 276 274 274 264 265 263 264 260 261 264 258 264 265 270 268 268 268 265 258 258 262 266 268 268 268 269 269 267 265 259 257 259 265 267 267 264 263 264 263 262 261 261 262 262 261 260 260 260 260
Wind_Speed
8 6 6 6 10 12 12 12 12 12 11 10 9 11 10 9 9 8 8 9 7 7 8 8 7 7 7 6 6 6 6 9 10 13 16 2 6 11 10 10 10 10 3 1 6 4 1 5 3 9 3 3 2 1 1 3 2 1 1 3 2 4 1 6 4 9 1 0 2 1 2 3 1 1 2 2 11 8 7 9 3 9 9 5 4 6 8 8
7 9 12 13 14 13 13 13 12 11 9 9 10 10 9 8 9 9 8 8 8 9 8 7 6 6 6 5 5 5 8 8 9 12 6 4 13 12 13 10 9 10 2 5 6 3 3 2 1 5 2 2 2 0 1 0 2 3 3 2 5 6 5 4 2 5 1 5 1 2 2 3 3 9 4 2 2 4 7 6 4 9 8 8 9 10 10 8
15 15 16 15 14 13 14 12 11 10 10 10 9 10 9 8 8 9 10 9 9 9 8 6 6 6 6 4 4 4 1 4 10 13 6 11 13 13 12 11 9 6 3 2 1 4 1 3 0 1 4 2 8 1 3 1 1 1 2 4 5 7 4 6 3 4 6 0 3 2 1 2 1 2 2 2 5 1 8 7 4 6 9 8 7 9 7 8
14 14 13 12 13 13 12 11 11 10 10 10 10 9 9 8 7 7 8 9 8 8 7 6 5 6 5 4 3 2 6 4 6 5 3 12 14 13 12 10 8 2 3 8 3 3 3 5 7 3 1 5 3 2 2 3 2 1 2 3 1 3 1 0 3 7 3 1 1 0 1 1 1 2 2 4 4 6 4 6 8 13 12 10 8 8 7 9
12 12 12 12 12 11 10 10 11 11 10 10 10 10 9 8 7 6 6 7 7 7 6 6 6 6 5 6 4 2 4 4 2 2 3 13 16 14 10 9 7 6 4 6 2 6 7 5 1 6 3 0 4 2 1 2 2 2 2 1 0 2 1 1 5 2 1 2 1 1 1 2 0 0 1 7 4 2 2 3 4 13 11 12 11 8 8 10
11 11 11 11 11 11 11 11 11 11 11 10 10 10 9 8 7 7 6 6 6 5 5 5 4 5 6 5 6 4 3 4 3 7 10 17 14 13 9 7 6 3 3 8 3 3 5 7 5 3 3 3 3 3 1 0 2 1 2 2 0 1 1 3 5 4 0 1 1 1 1 1 1 0 2 1 4 5 6 4 12 12 10 9 9 8 11 11
11 11 11 11 11 11 11 11 10 10 10 10 10 10 9 8 7 7 6 5 5 5 6 5 3 3 3 5 5 13 10 1 2 9 12 15 13 11 8 6 4 8 12 9 10 4 4 5 6 1 1 2 1 0 0 3 4 3 0 3 2 3 1 3 5 4 1 1 2 1 0 1 1 2 2 7 8 5 4 12 13 11 10 9 12 10 11 10
11 11 11 12 11 11 10 10 11 10 11 10 9 9 9 8 6 7 6 5 6 8 8 5 3 0 2 2 3 6 9 5 9 6 13 12 12 12 10 2 10 5 11 6 4 3 2 6 3 2 5 2 1 0 3 0 5 2 2 3 3 1 3 7 3 6 4 2 1 2 0 1 2 0 4 6 5 5 10 11 12 12 12 11 12 11 10 10
11 11 11 11 10 10 10 10 10 10 10 9 9 8 8 8 6 6 7 7 7 8 9 6 3 3 5 6 4 12 6 5 4 8 10 13 11 7 10 3 7 8 3 3 4 1 2 1 0 3 2 0 0 1 5 1 2 1 1 2 2 2 7 4 5 6 6 2 2 0 3 3 3 5 7 4 2 4 9 11 11 11 13 12 11 10 9 10
11 11 10 10 10 10 10 9 10 9 8 8 7 7 7 7 7 7 6 6 6 7 7 8 6 4 8 3 4 14 3 6 5 8 10 10 9 7 10 4 5 4 3 5 5 9 5 1 2 3 7 4 0 1 2 3 1 0 3 1 1 4 2 5 2 5 5 1 2 1 5 2 1 1 2 3 1 5 10 12 9 11 12 10 9 9 8 10
10 10 10 10 9 10 10 9 8 8 7 7 7 7 6 6 6 5 4 4 4 5 6 6 6 8 9 1 14 7 2 7 4 7 10 8 8 10 6 7 3 3 4 3 6 0 1 1 3 4 1 0 0 2 3 1 1 3 1 1 1 9 0 4 3 4 5 1 3 0 5 1 7 4 2 3 4 2 12 10 11 11 10 9 9 9 7 8
10 10 10 10 9 9 9 9 8 7 7 7 6 7 5 6 6 4 1 3 4 4 3 4 4 5 4 11 14 3 4 2 5 5 6 9 5 2 4 2 3 1 2 3 3 3 0 3 4 3 1 1 2 0 1 0 1 0 4 2 3 8 1 4 6 5 3 1 6 1 1 4 9 6 9 4 1 3 9 11 10 10 9 9 9 8 8 7
10 10 10 9 9 8 9 8 6 7 8 7 7 6 5 4 4 3 1 4 3 4 3 3 3 4 1 14 1 2 2 3 5 7 12 12 3 1 3 4 5 4 3 5 1 2 2 3 3 13 1 2 0 1 1 4 3 0 6 1 6 8 5 1 4 5 6 1 9 4 8 3 2 7 6 3 4 7 9 10 8 7 7 7 8 8 7 7
10 10 9 9 8 8 7 8 8 7 7 7 6 4 4 3 4 2 3 4 0 1 5 6 5 7 6 4 4 3 3 0 5 16 13 9 7 2 4 6 5 5 3 8 4 0 3 3 10 9 2 7 1 2 3 5 5 4 4 4 3 7 2 9 5 8 8 1 8 5 7 7 5 5 7 1 5 7 10 8 8 7 7 6 6 7 7 7
10 9 9 8 8 8 7 7 7 8 9 9 5 3 3 6 5 6 3 4 5 3 2 2 6 1 6 1 4 7 2 1 14 8 5 13 9 6 9 9 4 6 3 4 2 3 2 3 7 9 3 1 1 1 4 4 6 5 6 5 4 2 6 6 7 3 3 3 7 5 3 6 6 5 7 3 6 4 9 8 7 6 6 6 6 6 6 6
9 9 8 8 7 7 6 6 7 9 8 8 9 7 5 5 6 6 7 5 3 1 1 2 8 8 8 4 1 5 5 12 14 7 4 7 4 4 8 5 3 5 4 3 1 4 6 9 11 1 3 5 10 5 5 6 5 5 6 6 8 2 6 8 1 1 2 2 4 5 8 9 2 9 8 2 8 7 9 8 6 7 6 6 6 6 6 6
8 7 8 7 7 7 7 8 8 8 8 7 6 13 15 11 5 6 6 7 6 2 6 1 0 1 6 4 2 6 4 3 4 6 9 4 4 3 5 6 3 8 4 0 6 3 8 9 3 3 5 8 3 1 4 7 10 5 3 3 3 5 10 10 9 2 3 3 6 2 2 3 4 7 7 4 9 10 9 9 7 6 5 5 5 5 5 5
8 8 7 7 7 7 8 7 7 7 7 7 4 3 5 9 13 8 9 7 3 7 3 4 2 3 1 6 4 7 3 5 8 6 5 4 3 6 8 7 5 4 5 2 8 12 6 4 5 4 1 4 7 12 15 4 4 8 11 10 9 1 3 9 8 6 7 2 3 6 5 3 7 7 7 5 9 10 9 7 7 6 6 5 5 5 5 5
8 8 6 7 7 8 7 7 7 7 6 5 1 1 3 3 4 9 10 8 7 8 7 9 9 4 0 6 7 6 4 4 3 10 18 13 4 2 3 1 5 10 4 6 3 9 7 4 5 5 13 12 10 8 7 1 3 8 8 6 8 9 6 9 8 4 3 6 8 6 7 4 6 6 6 6 5 10 8 6 5 6 5 5 5 5 5 5
8 8 7 7 7 7 7 7 7 7 5 1 1 1 3 3 8 5 9 9 9 5 4 0 1 1 1 5 7 9 2 5 5 13 15 10 4 6 7 4 3 8 7 3 7 3 1 11 8 3 5 6 3 1 1 2 3 5 4 3 8 10 7 5 8 6 2 4 5 3 5 4 4 3 4 4 7 8 7 7 5 5 5 4 4 4 5 6
8 8 8 8 7 7 7 7 7 5 4 3 3 3 0 3 3 3 2 2 1 1 4 0 1 1 0 1 4 7 5 5 3 12 15 10 2 2 7 8 9 12 7 2 1 3 5 12 8 4 4 4 3 1 0 3 1 3 9 8 9 5 9 8 7 1 2 6 8 4 6 4 3 3 4 5 8 6 6 6 5 6 6 5 5 5 4 4
8 9 8 8 7 7 7 6 6 2 6 5 5 4 1 1 0 2 6 4 3 3 5 1 1 3 3 2 3 1 3 2 13 18 8 10 10 7 6 8 6 6 6 5 2 6 9 10 5 3 1 2 3 2 2 4 8 6 4 5 5 9 14 4 2 2 1 6 12 3 3 1 3 3 4 5 4 3 3 4 4 7 6 4 4 4 4 5
10 9 10 9 8 8 6 6 3 7 3 5 4 3 1 0 1 1 5 6 3 1 2 3 6 4 4 2 2 3 9 12 4 13 15 8 6 7 2 7 7 2 4 5 8 7 9 7 6 0 1 1 0 2 4 6 1 9 10 9 11 8 9 14 16 11 11 2 7 3 6 2 2 3 4 3 4 4 6 7 8 6 6 5 4 3 4 7
12 12 10 10 9 7 5 2 2 6 6 4 5 2 1 0 0 1 4 1 2 1 1 1 2 1 2 4 3 5 6 3 2 16 8 5 6 2 4 4 4 6 8 5 7 11 5 2 0 1 4 4 2 5 12 10 10 7 4 3 6 13 13 6 13 13 10 4 1 1 3 1 3 4 2 3 4 7 7 9 9 7 5 2 1 4 2 5
12 12 12 10 11 7 2 3 7 1 2 2 2 1 1 1 1 1 3 0 3 1 2 1 2 2 1 0 3 1 0 1 3 3 3 5 7 3 1 1 2 6 4 0 3 8 1 1 1 3 6 7 10 10 9 7 10 9 2 2 7 12 16 15 13 11 7 6 3 4 6 4 4 7 6 5 4 6 5 8 6 6 6 6 6 6 5 6
12 12 11 11 10 7 4 3 0 2 2 2 1 0 1 1 0 1 8 4 1 4 3 4 1 3 2 4 5 0 0 4 2 2 2 3 4 2 1 4 1 5 5 2 2 2 1 2 4 2 5 9 8 4 2 3 4 5 8 1 11 13 13 12 13 7 5 6 3 1 0 8 4 5 8 6 5 7 5 5 4 4 4 8 6 6 6 7
13 13 12 10 11 5 3 1 0 1 1 1 0 2 2 0 0 1 0 5 3 1 2 2 1 2 3 3 2 1 5 5 5 3 7 6 5 2 4 5 3 0 1 1 4 3 3 6 7 6 8 6 7 10 5 4 7 7 5 5 11 13 16 14 6 1 6 2 4 5 3 3 8 2 2 8 7 5 5 5 4 3 4 9 6 7 7 6
14 13 11 8 11 5 1 5 2 1 1 0 2 1 1 1 1 2 5 2 1 2 2 4 1 2 6 7 10 8 3 6 2 4 6 8 1 4 8 2 2 2 3 4 7 4 3 5 5 6 5 8 7 5 8 1 2 6 10 9 12 13 13 11 3 3 5 5 8 5 4 5 3 3 5 10 7 3 5 5 5 7 7 7 8 8 7 9
14 14 10 4 4 8 6 3 4 2 0 2 1 1 2 3 5 6 3 2 1 2 2 1 1 2 8 3 8 3 2 5 3 4 10 4 9 2 6 2 1 0 0 2 5 5 1 1 0 3 5 4 5 7 5 5 6 4 8 9 7 11 1 1 4 3 5 4 10 6 3 6 8 8 4 3 5 3 4 2 7 7 8 9 9 8 8 8
13 14 11 3 2 3 4 3 4 0 2 1 1 0 2 2 3 1 1 1 1 1 1 2 4 5 5 5 0 5 6 4 1 5 4 4 14 8 3 1 1 2 1 4 5 1 3 3 4 3 2 0 3 6 2 5 3 8 7 11 16 2 3 4 4 4 4 2 6 5 4 4 11 1 1 2 2 1 1 5 5 6 8 9 8 8 9 9
11 15 12 7 3 1 1 3 1 1 1 1 0 2 2 8 3 5 1 2 1 2 1 4 2 4 6 8 6 5 2 1 6 4 5 5 13 6 4 2 4 4 6 2 1 10 4 0 1 1 1 3 2 4 2 2 2 4 7 13 17 9 5 1 4 2 2 7 3 4 7 10 6 3 3 4 5 3 1 3 9 11 12 10 8 9 9 8
9 14 15 11 0 0 1 3 0 1 1 0 2 4 3 2 6 2 3 4 0 2 2 3 1 1 4 1 4 7 4 6 2 5 6 4 8 15 13 9 7 8 9 12 8 8 2 4 2 4 3 5 4 9 5 6 8 11 10 12 14 14 9 6 7 12 4 11 13 13 16 7 6 2 7 7 6 2 1 5 7 7 10 9 9 10 9 10
8 4 11 8 2 4 2 0 2 0 0 2 4 4 2 5 0 2 2 4 0 1 1 3 2 3 4 1 5 4 2 3 4 4 0 2 6 6 6 9 6 3 3 3 4 8 5 2 5 2 1 3 8 10 9 8 9 8 7 9 9 8 6 6 5 4 10 9 8 12 4 2 3 1 6 8 6 5 3 5 7 7 8 10 10 11 12 12
7 5 7 3 7 3 1 2 1 1 1 3 2 4 6 3 1 1 1 1 0 2 2 1 4 2 4 3 3 2 4 1 5 4 4 2 6 5 6 5 6 7 2 2 7 3 10 9 6 6 3 4 5 2 2 4 4 5 2 8 6 4 2 10 7 12 13 15 17 4 5 3 14 5 9 8 3 5 4 4 6 6 6 8 10 12 15 16
3 8 5 1 2 3 4 1 1 0 4 6 10 5 4 2 1 2 1 1 1 1 0 1 1 2 2 2 4 1 1 2 2 2 7 5 5 2 4 5 6 2 1 2 1 1 1 6 6 1 4 1 6 3 1 4 1 1 3 2 5 8 3 4 5 5 13 13 11 4 2 4 9 0 7 1 4 4 4 5 8 9 10 13 15 17 16 17
2 1 2 3 3 3 3 1 1 1 2 6 7 6 2 4 0 1 0 1 1 1 4 2 4 3 3 3 1 3 5 1 3 2 2 4 1 2 1 1 3 3 3 3 1 4 2 2 2 8 3 1 4 2 3 1 4 5 6 7 8 8 3 4 10 10 10 7 5 4 6 11 4 4 3 2 6 7 7 12 10 12 15 17 17 17 16 13
0 3 4 3 3 4 2 2 2 5 9 7 7 1 2 1 1 3 1 0 0 1 2 2 3 2 2 3 2 6 3 1 1 3 3 1 2 2 1 0 2 2 1 2 1 3 1 11 7 3 3 0 0 3 2 4 1 4 4 5 8 5 7 6 9 13 12 12 8 3 13 10 9 10 2 5 6 13 15 12 13 15 17 18 16 18 19 13
1 2 1 2 3 4 1 0 3 7 7 9 5 3 1 1 0 1 1 2 0 2 3 2 0 3 2 0 4 3 8 2 8 4 0 2 1 2 2 0 1 2 3 1 2 2 1 7 3 1 3 7 2 2 2 1 4 7 5 1 5 6 9 4 3 10 18 15 15 9 12 6 4 8 4 10 15 19 14 13 16 17 19 19 20 21 14 18
3 2 1 2 3 3 1 1 7 6 7 11 0 3 1 0 0 1 1 3 0 1 2 1 1 0 2 0 2 0 3 3 3 2 2 3 4 2 2 2 0 1 2 0 2 1 1 2 6 0 1 5 2 3 5 3 2 1 2 5 2 5 1 4 7 1 4 15 14 17 12 11 7 5 8 13 15 15 14 16 16 19 20 20 19 16 17 22
1 1 1 1 5 2 0 4 7 9 9 7 3 1 1 2 1 0 1 1 0 1 0 1 0 1 1 0 1 1 2 1 1 2 2 1 0 1 2 1 0 3 2 2 1 0 1 1 4 4 4 4 5 2 2 3 2 5 5 4 6 1 8 8 2 3 2 10 10 15 14 6 7 1 9 13 15 12 14 17 18 19 20 19 18 17 22 17
1 2 1 2 7 2 3 14 13 8 7 0 2 3 1 1 1 1 2 2 0 1 1 2 3 1 1 1 0 0 1 1 0 0 0 0 1 2 0 0 3 2 0 1 3 0 1 0 4 7 7 2 4 0 0 4 5 5 4 3 4 7 13 14 11 3 2 2 8 5 12 10 8 1 10 14 11 11 15 19 21 20 22 20 17 22 18 11
2 0 2 3 7 3 6 10 5 1 5 4 2 0 1 1 2 0 1 0 1 0 2 3 1 2 1 0 0 1 1 0 0 1 1 1 0 1 1 2 3 0 1 0 1 3 3 2 1 8 6 9 3 1 1 2 7 7 6 1 5 2 4 2 8 11 4 5 4 6 13 10 2 5 10 13 9 13 16 16 20 21 21 20 19 19 11 11
4 1 1 5 4 4 11 7 1 5 4 0 1 2 1 2 2 2 1 0 0 1 1 1 1 1 1 0 0 1 2 0 2 0 1 1 2 1 1 3 4 2 2 1 1 1 4 1 4 6 5 9 1 1 1 1 1 4 5 4 5 2 3 3 7 8 5 6 8 10 8 11 7 11 12 13 13 15 16 13 17 20 18 20 23 15 12 15
2 1 1 1 4 4 3 3 2 1 2 0 2 2 1 1 1 0 0 1 0 0 0 0 1 0 1 0 1 0 2 1 2 0 0 1 0 2 1 2 3 1 2 0 2 4 2 2 3 10 10 6 1 1 1 4 3 3 1 1 3 2 2 5 3 2 1 5 10 11 14 16 14 12 12 13 13 17 17 17 15 19 20 20 18 11 13 15
4 0 0 7 10 7 2 2 10 7 1 3 2 3 1 1 1 0 1 0 0 1 1 0 0 0 1 0 1 0 0 1 1 0 0 1 0 1 4 3 2 1 0 3 3 2 1 2 4 5 9 11 15 16 16 15 11 1 3 2 2 6 3 7 5 4 8 7 10 9 16 15 18 17 15 14 15 19 19 20 19 15 18 21 13 13 15 15
0 2 5 6 8 8 6 1 6 7 8 3 4 0 1 2 1 2 2 1 1 1 1 2 1 1 1 0 1 0 0 2 1 1 0 0 1 1 1 3 2 1 2 3 5 2 1 0 1 4 5 7 10 11 12 9 9 6 5 2 4 0 2 2 4 6 11 16 11 10 13 22 24 17 15 15 17 20 23 22 23 21 20 18 9 13 14 16
1 4 0 1 3 10 4 5 4 3 5 3 3 1 1 0 1 1 1 0 0 0 1 1 0 0 0 1 0 0 0 1 2 1 0 3 1 1 4 0 1 2 4 0 3 2 2 1 4 5 7 9 10 13 14 8 11 11 8 4 2 3 3 0 3 10 11 14 20 11 18 19 21 16 15 17 17 17 19 21 21 23 21 15 12 14 17 16
1 1 2 0 3 2 5 3 3 6 2 3 1 1 2 2 1 1 1 0 0 0 0 0 3 2 1 1 2 1 1 1 1 1 0 1 1 4 2 3 1 4 1 0 1 2 2 1 5 5 9 8 11 13 14 10 5 6 4 1 2 4 3 6 5 8 8 8 16 24 19 19 19 17 17 16 16 18 20 20 18 19 17 11 14 16 16 19
4 2 1 1 2 1 1 1 3 7 7 3 2 1 2 2 4 1 1 0 1 0 0 0 1 1 0 0 1 0 1 1 1 1 3 0 1 1 1 1 0 3 1 2 2 1 2 3 4 3 9 9 12 11 10 7 3 1 2 3 4 4 6 7 9 9 8 12 17 20 18 15 13 15 17 17 15 14 15 15 18 19 13 13 15 16 18 19
3 4 1 6 7 4 1 2 2 3 4 1 3 1 4 5 3 1 0 1 0 0 0 2 0 0 1 2 2 0 1 1 1 1 1 5 1 1 1 2 1 1 2 1 0 0 1 4 3 1 3 9 11 7 1 4 3 2 3 4 4 6 5 6 6 10 11 10 14 13 15 18 11 12 17 16 15 17 17 20 19 17 11 14 15 17 20 17
1 1 5 10 5 2 1 2 2 3 2 1 2 2 3 2 2 3 1 0 0 0 0 0 3 2 0 1 0 0 1 2 2 3 4 4 0 4 2 2 2 1 3 1 1 2 3 4 2 2 5 8 3 2 11 7 1 2 3 2 4 7 9 5 4 8 9 15 10 9 14 15 13 17 17 16 18 16 20 24 20 13 12 15 18 19 18 20
3 1 4 8 6 2 1 1 1 2 1 2 2 3 1 5 2 3 2 0 1 0 1 1 2 3 0 0 2 2 1 2 2 3 3 2 3 2 0 2 5 0 0 0 0 0 1 1 4 2 5 5 4 8 16 15 3 2 2 3 2 7 8 9 8 9 6 2 6 9 9 9 16 18 19 20 19 19 16 17 19 12 11 15 19 19 20 21
Wind_Direction
9 354 20 11 26 18 15 16 10 2 356 354 354 4 360 355 350 350 355 353 341 352 0 5 12 11 15 22 16 356 48 69 38 35 44 82 321 316 317 318 318 320 342 68 20 69 356 13 11 336 33 59 311 65 283 51 32 57 51 112 282 220 158 211 200 193 201 333 309 279 200 128 274 150 185 106 46 77 67 68 13 55 56 89 132 116 105 87
359 9 18 16 19 16 12 12 3 354 346 347 1 356 347 345 347 350 343 349 352 358 0 0 3 9 13 16 32 22 74 51 42 44 65 326 343 346 345 337 338 327 37 34 59 76 84 345 321 30 64 56 321 267 30 333 53 90 138 106 237 181 242 152 209 231 130 263 243 265 285 214 250 143 192 117 151 118 75 36 49 82 67 70 71 86 88 102
6 7 13 9 9 9 10 2 352 346 345 351 353 344 338 339 346 349 347 345 356 356 351 350 7 6 3 17 22 355 60 13 28 21 323 348 339 348 345 346 350 0 55 134 168 115 101 187 200 102 7 123 8 245 29 333 28 233 136 260 250 209 252 225 219 258 205 122 282 279 344 161 281 118 125 241 165 137 153 144 69 95 120 104 96 90 104 94
9 8 2 359 5 7 0 351 348 346 349 349 341 337 333 344 349 353 343 343 346 345 345 359 10 16 18 17 71 39 72 60 39 300 291 336 341 348 350 355 4 42 71 57 131 97 113 82 53 83 58 62 314 31 52 320 43 244 96 190 232 190 10 154 221 254 255 203 275 218 0 337 306 218 158 155 94 249 268 214 158 164 147 134 120 111 92 78
5 2 357 359 2 359 353 349 348 349 343 342 338 334 337 342 349 344 352 343 341 346 342 354 13 26 43 41 66 81 80 56 319 271 304 341 342 344 352 1 17 45 85 142 72 49 63 66 63 35 64 211 3 15 30 335 82 117 211 197 145 93 319 324 336 297 224 245 107 39 329 271 298 52 120 160 220 286 272 236 127 136 137 133 130 107 78 72
1 358 354 356 357 354 352 348 345 344 341 336 337 336 339 346 344 341 348 336 344 346 348 354 9 33 49 50 57 65 98 65 324 328 347 340 336 336 353 8 5 62 73 50 75 9 43 355 57 21 6 60 356 57 314 208 359 279 335 351 224 207 267 342 340 350 307 0 5 334 243 90 89 73 63 83 27 277 272 221 123 122 123 112 91 95 81 76
359 356 352 351 354 352 347 344 342 339 339 338 337 341 340 344 339 339 337 340 332 3 11 4 12 48 72 62 40 70 80 171 345 297 357 330 335 334 342 6 13 42 42 38 16 52 18 42 71 6 82 63 335 49 1 301 1 105 227 359 25 182 281 348 317 339 33 12 292 237 355 265 64 299 38 49 317 298 83 116 114 111 97 86 87 79 85 83
357 354 352 350 349 347 342 339 341 342 340 339 338 341 334 337 347 330 338 356 359 13 23 18 14 28 186 50 49 39 50 342 308 311 334 335 338 337 334 55 25 53 52 66 4 44 81 37 56 176 59 96 226 99 330 255 23 65 338 341 303 143 303 323 299 10 1 314 314 94 295 344 89 86 66 8 339 52 92 102 103 100 89 88 89 86 86 83
355 352 350 347 343 340 340 340 342 344 341 337 344 333 325 330 349 339 344 4 13 18 19 18 5 34 90 85 114 59 359 293 293 303 342 341 331 349 14 15 8 71 131 61 30 111 111 288 54 178 271 95 194 41 342 29 329 77 273 338 318 7 326 332 355 11 3 302 63 59 292 314 196 110 58 290 38 77 107 98 102 95 90 88 88 89 85 80
351 349 344 344 337 338 339 339 343 342 333 340 330 322 320 331 349 1 350 359 2 16 5 10 25 83 53 78 60 62 306 276 322 340 339 343 338 26 34 33 22 57 50 347 21 32 61 219 104 171 124 80 95 77 270 50 297 122 311 262 71 326 334 352 20 343 337 59 322 40 310 6 324 256 337 34 289 135 103 98 76 89 91 90 89 86 78 80
346 346 344 341 338 337 337 342 339 331 333 329 316 319 316 336 350 0 357 347 352 10 15 11 22 43 52 61 71 66 255 18 348 339 345 348 24 35 1 342 348 72 102 20 52 303 180 143 163 135 51 231 78 328 52 284 183 28 253 83 35 348 349 359 1 355 3 346 38 205 308 102 348 75 16 197 174 182 114 86 87 89 94 95 94 88 80 76
343 344 340 339 335 335 336 337 335 322 334 316 315 322 320 333 348 351 341 317 348 7 9 44 67 101 79 64 61 61 282 302 311 335 338 12 24 62 324 343 37 107 105 78 8 14 230 152 109 63 42 224 330 129 86 5 79 333 18 2 311 358 20 354 9 324 22 306 6 229 22 10 12 354 317 168 90 95 95 91 92 94 94 96 94 92 83 75
342 342 337 332 334 333 333 330 320 328 328 325 326 309 327 341 344 14 11 23 23 7 32 56 59 71 97 51 33 174 308 297 349 332 7 9 347 175 86 55 61 58 112 112 34 334 97 125 99 73 205 93 166 43 139 64 334 237 32 59 358 12 353 308 329 4 357 263 358 355 329 267 42 358 5 67 106 114 93 93 91 93 92 87 91 88 86 72
340 337 330 329 327 328 326 341 342 334 329 330 322 316 334 11 36 84 83 81 166 56 86 56 81 64 74 92 246 240 281 99 331 21 1 334 26 309 0 14 40 40 22 91 95 101 75 79 89 116 115 64 354 336 34 336 17 46 301 62 53 5 293 315 16 304 6 329 5 22 316 298 180 343 349 283 135 148 108 105 105 98 94 88 77 84 76 61
338 330 327 328 328 328 333 343 343 345 357 349 352 30 52 53 50 56 89 68 49 146 59 4 40 72 45 63 267 288 343 139 24 5 354 7 8 343 355 345 5 12 27 83 88 32 107 66 63 38 0 319 328 43 8 16 8 15 32 328 327 30 290 315 335 33 357 318 12 25 280 265 155 331 323 225 155 142 108 111 106 103 99 88 82 78 74 65
333 330 325 325 323 335 341 344 354 359 355 14 54 60 65 56 53 61 61 83 18 255 315 54 360 89 110 42 301 9 40 20 357 328 325 37 18 7 300 292 298 4 19 35 68 48 34 65 65 155 354 344 38 47 18 29 343 9 54 305 329 295 284 332 326 0 35 278 322 51 280 305 192 358 334 268 144 119 116 114 108 108 103 95 94 81 73 75
329 323 329 322 341 351 353 2 357 346 332 316 35 70 63 51 52 80 67 49 8 337 70 34 114 79 72 257 352 26 341 312 282 341 350 37 52 341 353 19 14 336 0 60 31 64 9 61 295 21 50 69 345 332 57 31 346 345 108 328 258 301 331 333 315 75 342 62 304 18 245 213 320 342 349 92 127 118 120 128 123 119 110 103 89 86 81 66
342 335 335 346 350 357 358 354 350 330 302 287 267 312 62 46 58 50 2 13 346 71 74 103 98 41 341 10 26 311 322 305 355 315 255 327 73 13 45 37 335 9 35 18 2 31 339 48 17 109 35 27 13 30 50 342 287 309 333 336 327 314 203 271 331 299 7 21 301 292 248 284 5 9 15 45 116 118 125 128 132 122 114 98 93 87 78 63
345 347 346 354 350 358 353 345 340 323 296 271 286 194 19 23 15 53 39 344 36 353 26 336 18 73 147 308 283 274 302 251 265 6 348 356 338 79 61 110 52 38 3 53 332 31 354 55 40 48 16 7 8 45 86 303 263 283 292 273 280 315 331 310 269 298 54 316 302 279 290 6 13 14 20 42 74 117 120 114 111 106 100 94 83 88 66 59
351 355 351 356 353 347 343 341 340 327 301 91 16 32 18 18 4 356 355 24 63 87 149 203 112 188 338 6 342 297 269 37 41 354 356 359 357 354 39 57 359 68 55 50 313 38 239 60 39 6 319 327 320 31 91 275 243 266 261 257 279 288 295 259 270 272 336 315 253 304 90 58 25 23 43 51 93 97 108 118 112 115 97 77 81 69 75 58
355 357 0 357 353 342 337 344 343 9 44 100 82 64 273 160 69 44 290 18 177 23 63 85 135 122 127 265 314 356 17 331 108 14 10 307 119 59 348 17 4 36 12 278 181 304 58 57 8 300 302 279 277 297 166 330 171 299 326 337 322 300 307 312 279 328 325 37 299 107 88 56 38 39 44 80 89 80 102 102 102 91 80 71 61 50 40 54
352 3 357 355 348 345 345 347 9 78 64 84 70 106 136 197 129 169 121 55 10 28 46 51 295 35 329 205 272 168 162 335 0 7 355 20 344 66 328 76 51 43 316 1 19 19 41 42 311 288 275 93 68 72 356 7 0 343 333 278 296 339 325 293 311 302 265 7 292 64 82 101 66 61 69 67 71 78 42 85 86 98 82 65 53 42 31 12
357 352 359 354 349 345 344 333 33 43 38 37 67 80 93 232 14 231 93 122 90 299 57 22 34 20 350 327 337 89 50 39 308 350 354 9 359 64 345 39 25 355 20 9 67 18 37 4 343 219 100 153 72 28 10 28 87 341 348 357 347 322 6 325 320 331 316 305 280 52 331 120 99 95 69 13 65 78 58 63 67 73 85 64 37 27 13 349
354 355 351 356 347 341 344 21 47 44 30 118 95 107 207 108 139 101 64 86 132 329 53 208 117 127 32 30 335 59 65 342 57 342 354 31 29 279 67 39 22 35 2 8 73 91 124 295 174 87 38 55 39 356 18 2 358 330 310 291 327 336 320 272 301 315 303 295 52 17 254 132 182 162 155 103 78 81 53 69 59 55 65 47 299 347 319 327
353 351 352 349 351 336 284 74 39 46 191 55 41 246 233 194 124 124 94 8 15 23 156 49 107 61 324 165 2 113 286 85 70 225 309 47 326 36 15 200 87 11 355 236 75 79 43 294 175 3 33 32 33 10 13 14 340 340 225 341 328 314 308 310 305 330 346 326 138 25 346 299 185 205 174 163 125 94 55 72 56 50 26 1 335 325 292 279
354 357 351 355 349 328 278 48 14 174 82 81 216 219 238 152 154 72 93 71 17 282 8 6 174 355 168 338 16 57 53 50 284 339 302 353 208 99 29 16 58 9 345 75 86 143 100 355 65 52 43 36 33 1 317 36 347 353 331 355 324 308 301 309 315 15 329 330 336 52 32 296 129 238 194 160 114 97 67 63 65 23 359 337 310 308 298 281
359 0 359 357 355 332 57 239 191 140 41 283 277 332 317 333 199 105 13 349 31 290 30 260 70 354 83 318 315 96 45 303 328 340 8 11 23 297 93 332 9 20 144 187 38 333 19 353 25 35 41 36 12 3 354 41 352 337 294 329 318 314 314 305 328 357 252 291 309 43 94 266 316 311 176 132 118 96 73 58 357 300 281 313 293 300 303 287
3 1 2 11 14 48 198 128 109 80 171 314 4 301 306 186 41 35 77 61 328 355 11 323 30 331 68 312 18 76 147 299 36 335 14 309 44 350 80 28 123 254 299 60 43 276 57 349 29 14 41 34 7 309 305 88 12 277 314 327 312 303 294 298 319 243 270 359 331 356 342 312 258 298 61 131 123 103 83 10 323 296 272 280 281 279 290 293
5 3 358 11 37 56 69 110 114 126 314 318 321 300 126 74 89 112 134 108 258 72 202 83 231 42 340 2 38 15 355 2 79 307 321 325 23 171 45 343 149 26 268 84 76 329 327 129 199 126 79 19 285 301 323 312 0 272 304 307 283 299 267 135 329 333 335 41 319 341 4 343 306 322 91 110 146 100 20 336 309 295 290 291 291 283 281 292
7 3 9 325 41 20 0 40 45 244 342 279 293 201 48 57 34 30 4 356 20 307 36 280 58 300 20 26 345 0 42 343 93 307 8 59 329 27 80 123 117 40 36 4 79 341 264 332 192 85 100 248 267 271 246 305 296 302 319 336 338 0 298 336 70 16 28 24 268 328 30 39 310 343 323 116 65 139 269 324 323 316 312 312 303 285 285 286
11 17 18 53 79 186 71 28 301 46 287 302 229 43 74 39 109 97 94 227 44 282 19 33 352 19 28 39 354 347 52 352 343 25 357 356 9 20 353 34 23 59 42 13 356 337 6 352 43 305 66 302 169 303 282 178 239 331 5 4 337 349 344 16 340 141 356 300 255 278 323 318 293 326 73 109 158 128 135 319 333 334 332 323 316 314 299 298
16 36 38 53 117 41 95 186 2 0 6 305 63 59 64 269 7 93 179 330 139 304 81 296 12 49 20 313 68 344 343 328 3 34 35 22 30 31 10 50 339 10 359 17 337 355 51 103 289 340 195 25 342 353 340 356 6 20 9 10 12 327 359 351 5 351 37 339 330 335 325 12 293 2 161 169 182 199 248 228 309 311 318 314 311 316 316 309
2 55 51 43 55 46 40 236 340 247 342 50 71 50 61 94 74 268 300 317 284 16 292 148 273 4 298 31 360 336 254 44 316 43 41 357 83 50 38 51 341 107 319 332 333 14 282 278 357 338 59 355 39 20 336 352 4 7 22 16 11 336 354 315 301 308 302 286 316 310 279 211 331 173 158 165 198 220 267 240 259 277 293 301 308 315 316 317
12 35 61 6 71 87 88 37 340 327 57 41 70 37 51 62 243 157 290 262 314 353 52 23 333 1 47 77 322 357 15 256 30 344 42 3 50 35 342 21 35 0 74 348 45 347 9 347 328 20 356 340 50 79 249 235 333 292 50 43 345 12 288 316 346 332 324 316 312 345 25 244 335 344 157 176 187 241 277 256 260 275 281 298 307 315 320 326
56 64 107 39 50 58 57 50 315 108 79 65 53 84 120 230 224 189 252 298 298 308 91 315 10 42 335 24 327 305 121 307 40 46 18 45 11 54 11 331 339 82 203 79 279 97 202 236 268 127 251 57 18 334 111 323 134 227 182 44 41 333 153 275 228 302 319 316 321 347 181 294 316 244 148 77 293 293 253 322 345 352 348 337 333 333 328 322
347 326 65 25 24 352 69 47 357 73 86 62 75 45 97 180 110 154 75 183 352 17 308 9 64 42 311 312 315 53 315 60 309 75 5 63 224 85 248 291 355 4 17 93 240 8 4 294 278 334 25 77 360 16 354 77 25 302 0 358 305 310 2 303 308 275 265 296 260 271 332 330 126 117 120 279 294 298 320 344 358 352 344 338 334 330 323 328
6 335 40 333 354 348 21 63 76 81 67 88 93 85 199 283 192 158 336 168 275 136 50 116 322 82 325 303 275 339 304 29 329 57 1 145 31 65 37 307 186 2 91 131 333 185 137 278 320 39 356 276 65 97 77 19 63 44 16 294 292 158 156 102 321 333 328 315 304 340 321 324 13 335 197 283 297 332 349 352 351 344 340 338 332 330 327 349
85 60 148 33 314 331 16 120 87 56 75 80 67 139 245 88 333 111 174 82 329 33 86 87 259 75 261 92 321 352 320 86 328 40 247 344 79 138 96 254 282 108 334 316 116 293 125 323 296 299 229 272 17 77 30 350 26 66 314 294 40 333 358 326 43 341 337 340 318 334 314 316 340 315 3 340 344 344 349 349 345 342 342 336 334 328 341 345
64 87 16 326 349 4 291 72 70 69 71 65 173 95 241 72 195 114 222 126 131 129 80 239 144 314 134 132 249 295 326 42 321 43 62 337 52 142 111 190 32 222 338 107 58 242 20 279 300 300 326 294 332 70 342 308 341 51 20 31 308 42 356 54 211 245 36 300 320 316 335 335 327 333 343 343 349 349 344 347 343 341 337 336 331 337 346 334
76 31 327 289 328 15 213 81 61 48 60 112 192 126 212 87 93 128 16 170 255 85 242 125 239 97 0 219 133 354 333 91 52 287 87 298 103 43 80 352 172 328 56 15 129 291 275 146 261 270 297 357 4 358 267 161 311 328 35 15 4 24 208 181 54 151 214 296 311 306 319 308 344 153 348 353 355 355 351 339 340 336 333 332 334 345 335 334
30 100 263 322 335 302 50 47 45 40 91 186 94 146 21 119 178 15 46 353 70 317 164 177 158 116 206 77 332 223 348 61 16 46 143 304 91 342 199 200 181 353 34 26 58 337 46 82 225 307 343 29 290 83 127 114 59 53 42 48 23 18 353 355 322 83 46 62 287 330 276 300 334 128 358 356 359 352 349 342 333 332 331 333 340 342 334 3
94 30 287 348 343 69 77 54 21 74 95 90 98 136 117 107 69 1 30 323 37 138 14 107 39 120 122 147 167 176 134 31 228 64 258 110 287 90 295 83 179 242 100 354 250 233 145 177 84 309 282 283 242 261 11 116 101 111 101 172 177 106 64 75 326 312 15 247 233 260 293 295 182 2 7 360 359 350 343 339 330 332 333 336 341 335 356 1
55 176 249 4 344 81 70 62 327 41 60 142 248 29 17 42 112 221 105 318 313 141 32 58 187 88 241 161 179 150 174 189 164 39 193 246 263 228 225 172 183 132 129 317 29 269 84 67 311 248 232 278 319 328 115 79 129 37 36 46 65 86 174 183 240 298 295 332 320 288 264 297 349 355 1 1 352 342 333 338 333 330 333 337 336 344 358 346
144 142 357 349 45 106 81 133 104 60 86 346 73 73 341 134 113 16 32 333 118 14 144 144 345 12 128 111 119 115 192 60 228 107 24 188 21 129 149 197 218 7 79 319 81 285 2 301 71 322 343 332 121 111 175 219 86 28 24 356 60 100 48 235 182 82 284 217 295 318 310 315 331 349 353 350 342 335 333 335 339 333 334 337 337 354 349 345
113 330 2 313 6 55 101 185 129 147 163 127 107 60 5 39 62 60 150 179 23 153 109 19 168 154 56 120 79 178 326 85 272 353 124 183 253 36 357 97 283 108 296 279 293 309 86 273 61 31 350 338 334 339 332 333 340 171 93 80 77 65 329 14 352 299 313 307 308 317 302 298 314 335 339 342 339 334 333 333 335 340 338 333 344 350 343 342
103 121 310 358 15 41 67 40 91 126 130 139 70 241 119 81 27 339 127 58 170 113 44 149 11 90 85 57 35 12 326 4 70 257 95 291 292 5 294 328 75 177 156 77 26 51 140 29 130 149 162 238 250 265 284 310 326 316 292 83 320 49 21 26 300 328 331 317 318 304 294 309 319 335 342 339 346 338 335 335 338 337 338 338 354 346 340 344
126 79 28 38 338 48 59 18 58 54 150 166 107 190 60 114 245 356 168 57 234 147 51 50 193 154 301 72 320 289 266 293 15 104 263 190 258 239 302 314 11 102 199 91 19 85 67 309 251 196 220 235 255 271 281 305 294 292 315 312 244 276 220 284 355 324 306 317 311 320 321 319 315 326 336 340 339 334 332 334 335 335 332 338 346 335 341 338
72 230 102 196 123 164 69 14 73 88 51 72 123 55 157 111 46 130 0 104 164 322 124 330 45 47 173 134 129 84 333 351 325 230 1 204 335 336 64 19 67 306 326 3 18 106 134 192 259 124 250 241 262 265 272 284 260 257 289 158 316 278 332 331 275 271 310 323 297 310 323 318 312 324 331 336 337 332 328 328 325 326 328 339 336 339 339 347
108 129 128 323 92 287 109 160 96 110 74 82 110 95 127 136 167 211 168 311 39 8 78 123 320 321 279 309 119 191 213 52 314 166 161 152 122 358 24 2 217 11 93 47 12 157 102 251 234 193 288 281 272 264 267 255 255 294 297 282 244 324 297 269 265 265 296 289 294 307 314 297 312 319 330 331 332 325 320 323 329 331 344 342 341 338 345 343
196 133 83 13 86 105 13 49 88 69 73 32 99 241 144 164 155 224 344 121 36 326 330 94 221 178 210 158 149 106 236 180 202 296 221 116 340 137 209 186 240 339 38 119 104 286 87 281 50 328 315 291 276 279 271 222 214 244 239 243 255 242 273 290 292 307 302 297 307 303 314 319 320 324 326 329 330 332 326 332 334 336 347 344 342 346 340 341
140 129 156 125 61 332 28 19 78 102 101 338 84 216 102 187 156 167 114 95 157 214 9 260 153 132 111 119 118 249 240 193 185 215 180 164 246 217 129 271 142 283 356 18 25 315 51 281 60 64 345 298 289 327 306 306 118 163 200 270 285 334 341 320 312 305 328 303 305 335 328 316 321 332 325 327 327 333 339 331 329 341 352 344 348 341 338 341
80 32 74 103 92 299 97 51 15 87 135 209 137 182 158 208 171 137 81 240 166 211 185 188 193 122 333 307 279 233 234 188 219 230 190 170 86 127 75 163 156 165 226 127 253 78 143 62 342 7 341 267 298 356 316 322 352 58 318 230 284 336 286 268 276 313 295 339 3 323 278 293 322 332 327 326 333 331 330 329 322 344 348 356 345 338 338 341